When you browse on this site, cookies collect data to enhance your experience and personalize the content and advertising you see.
Visit our Privacy Policy to learn more. By continuing to use the site, you agree to this use of cookies and data.
  • In Slovakia
  • List of Countries
  • For 7 days
  • Water Temperature
  • Satellite Maps
  • Weather Map
  • Weather Widgets
  • user-avatar
    Login

    Hourly Weather La Massana

    Today, 19 February, Tuesday

    Time Temperature Precipitation Wind Pressure Humidity
    00:00 -1°C° 0 mm 1 mps 609 mmHg 57%
    01:00 -1°C° 0 mm 1 mps 609 mmHg 55%
    02:00 -1°C° 0 mm 1 mps 609 mmHg 53%
    03:00 -1°C° 0 mm 1 mps 608 mmHg 51%
    04:00 -1°C° 0 mm 1 mps 608 mmHg 50%
    05:00 -1°C° 0 mm 1 mps 608 mmHg 48%
    06:00 -2°C° 0 mm 1 mps 608 mmHg 47%
    07:00 0°C° 0 mm 1 mps 609 mmHg 45%
    08:00 +1°C° 0 mm 0 mps 610 mmHg 43%
    09:00 +3°C° 0 mm 0 mps 611 mmHg 41%
    10:00 +4°C° 0 mm 0 mps 612 mmHg 41%
    11:00 +6°C° 0 mm 1 mps 612 mmHg 41%
    12:00 +7°C° 0 mm 1 mps 613 mmHg 41%
    13:00 +6°C° 0 mm 1 mps 612 mmHg 43%
    14:00 +6°C° 0 mm 1 mps 612 mmHg 46%
    15:00 +6°C° 0 mm 1 mps 611 mmHg 49%
    16:00 +4°C° 0 mm 1 mps 611 mmHg 59%
    17:00 +2°C° 0 mm 1 mps 610 mmHg 68%
    18:00 -1°C° 0 mm 0 mps 609 mmHg 78%
    19:00 -1°C° 0 mm 0 mps 609 mmHg 77%
    20:00 -2°C° 0 mm 0 mps 609 mmHg 77%
    21:00 -1°C° 0 mm 1 mps 609 mmHg 76%
    22:00 -1°C° 0 mm 1 mps 610 mmHg 74%
    23:00 -1°C° 0 mm 1 mps 610 mmHg 73%

    Tomorrow, 20 February, Wednesday

    Time Temperature Precipitation Wind Pressure Humidity
    00:00 -1°C° 0 mm 1 mps 610 mmHg 71%
    01:00 -1°C° 0 mm 1 mps 610 mmHg 70%
    02:00 -2°C° 0 mm 0 mps 610 mmHg 69%
    03:00 -2°C° 0 mm 0 mps 610 mmHg 69%
    04:00 -1°C° 0 mm 1 mps 610 mmHg 68%
    05:00 -1°C° 0 mm 1 mps 610 mmHg 67%
    06:00 -1°C° 0 mm 1 mps 610 mmHg 66%
    07:00 0°C° 0 mm 0 mps 611 mmHg 60%
    08:00 +2°C° 0 mm 0 mps 612 mmHg 54%
    09:00 +3°C° 0 mm 0 mps 613 mmHg 49%
    10:00 +4°C° 0 mm 0 mps 614 mmHg 46%
    11:00 +7°C° 0 mm 1 mps 614 mmHg 43%
    12:00 +8°C° 0 mm 1 mps 615 mmHg 39%
    13:00 +8°C° 0 mm 1 mps 614 mmHg 42%
    14:00 +7°C° 0 mm 1 mps 614 mmHg 44%
    15:00 +7°C° 0 mm 1 mps 614 mmHg 46%
    16:00 +5°C° 0 mm 1 mps 613 mmHg 56%
    17:00 +3°C° 0 mm 1 mps 612 mmHg 67%
    18:00 0°C° 0 mm 0 mps 612 mmHg 77%
    19:00 +1°C° 0 mm 1 mps 612 mmHg 76%
    20:00 0°C° 0 mm 1 mps 612 mmHg 76%
    21:00 0°C° 0 mm 1 mps 612 mmHg 76%
    22:00 0°C° 0 mm 1 mps 613 mmHg 74%
    23:00 0°C° 0 mm 1 mps 613 mmHg 72%

    Day after tomorrow, 21 February, Thursday

    Time Temperature Precipitation Wind Pressure Humidity
    00:00 0°C° 0 mm 1 mps 613 mmHg 71%
    01:00 0°C° 0 mm 1 mps 613 mmHg 70%
    02:00 0°C° 0 mm 1 mps 613 mmHg 68%
    03:00 0°C° 0 mm 1 mps 613 mmHg 67%
    04:00 0°C° 0 mm 1 mps 613 mmHg 66%
    05:00 0°C° 0 mm 1 mps 613 mmHg 65%
    06:00 0°C° 0 mm 1 mps 613 mmHg 64%
    07:00 +1°C° 0 mm 0 mps 615 mmHg 58%
    08:00 +3°C° 0 mm 0 mps 616 mmHg 52%
    09:00 +5°C° 0 mm 0 mps 617 mmHg 46%
    10:00 +6°C° 0 mm 0 mps 617 mmHg 42%
    11:00 +8°C° 0 mm 1 mps 618 mmHg 39%
    12:00 +9°C° 0 mm 1 mps 618 mmHg 35%
    13:00 +9°C° 0 mm 1 mps 618 mmHg 38%
    14:00 +9°C° 0 mm 1 mps 618 mmHg 40%
    15:00 +9°C° 0 mm 1 mps 618 mmHg 43%
    16:00 +7°C° 0 mm 1 mps 617 mmHg 52%
    17:00 +3°C° 0 mm 0 mps 616 mmHg 62%
    18:00 +1°C° 0 mm 0 mps 615 mmHg 72%
    19:00 +1°C° 0 mm 0 mps 615 mmHg 71%
    20:00 +2°C° 0 mm 1 mps 616 mmHg 70%
    21:00 +2°C° 0 mm 1 mps 616 mmHg 70%
    22:00 +2°C° 0 mm 1 mps 616 mmHg 67%
    23:00 +2°C° 0 mm 1 mps 616 mmHg 65%

    22 February, Friday

    Time Temperature Precipitation Wind Pressure Humidity
    00:00 +2°C° 0 mm 1 mps 616 mmHg 62%
    01:00 +2°C° 0 mm 1 mps 616 mmHg 55%
    02:00 +2°C° 0 mm 1 mps 616 mmHg 49%
    03:00 +1°C° 0 mm 1 mps 616 mmHg 42%
    04:00 +2°C° 0 mm 1 mps 616 mmHg 36%
    05:00 +2°C° 0 mm 1 mps 616 mmHg 31%
    06:00 +2°C° 0 mm 1 mps 616 mmHg 25%
    07:00 +4°C° 0 mm 1 mps 617 mmHg 25%
    08:00 +6°C° 0 mm 1 mps 618 mmHg 25%
    09:00 +8°C° 0 mm 1 mps 619 mmHg 25%
    10:00 +9°C° 0 mm 1 mps 619 mmHg 25%
    11:00 +11°C° 0 mm 1 mps 620 mmHg 24%
    12:00 +13°C° 0 mm 1 mps 620 mmHg 24%
    13:00 +12°C° 0 mm 1 mps 620 mmHg 28%
    14:00 +12°C° 0 mm 1 mps 619 mmHg 32%
    15:00 +12°C° 0 mm 1 mps 619 mmHg 36%
    16:00 +10°C° 0 mm 1 mps 618 mmHg 42%
    17:00 +7°C° 0 mm 1 mps 616 mmHg 48%
    18:00 +5°C° 0 mm 1 mps 615 mmHg 54%
    19:00 +4°C° 0 mm 1 mps 615 mmHg 48%
    20:00 +4°C° 0 mm 1 mps 615 mmHg 43%
    21:00 +4°C° 0 mm 1 mps 615 mmHg 38%
    22:00 +4°C° 0 mm 1 mps 615 mmHg 33%
    23:00 +4°C° 0 mm 1 mps 615 mmHg 28%

    23 February, Saturday

    Time Temperature Precipitation Wind Pressure Humidity
    00:00 +4°C° 0 mm 1 mps 615 mmHg 24%
    01:00 +4°C° 0 mm 1 mps 615 mmHg 23%
    02:00 +4°C° 0 mm 1 mps 615 mmHg 22%
    03:00 +4°C° 0 mm 1 mps 615 mmHg 21%
    04:00 +4°C° 0 mm 1 mps 615 mmHg 21%
    05:00 +3°C° 0 mm 1 mps 615 mmHg 22%
    06:00 +3°C° 0 mm 1 mps 615 mmHg 22%
    07:00 +5°C° 0 mm 1 mps 616 mmHg 24%
    08:00 +8°C° 0 mm 1 mps 618 mmHg 25%
    09:00 +9°C° 0 mm 0 mps 619 mmHg 27%
    10:00 +11°C° 0 mm 1 mps 620 mmHg 26%
    11:00 +13°C° 0 mm 1 mps 620 mmHg 25%
    12:00 +14°C° 0 mm 1 mps 621 mmHg 24%
    13:00 +14°C° 0 mm 1 mps 620 mmHg 28%
    14:00 +14°C° 0 mm 1 mps 620 mmHg 31%
    15:00 +14°C° 0 mm 1 mps 620 mmHg 34%
    16:00 +11°C° 0 mm 1 mps 619 mmHg 44%
    17:00 +8°C° 0 mm 1 mps 618 mmHg 54%
    18:00 +5°C° 0 mm 0 mps 617 mmHg 63%
    19:00 +5°C° 0 mm 1 mps 617 mmHg 61%
    20:00 +5°C° 0 mm 1 mps 617 mmHg 58%
    21:00 +5°C° 0 mm 1 mps 617 mmHg 56%
    22:00 +4°C° 0 mm 1 mps 617 mmHg 49%
    23:00 +4°C° 0 mm 1 mps 617 mmHg 42%

    24 February, Sunday

    Time Temperature Precipitation Wind Pressure Humidity
    00:00 +4°C° 0 mm 1 mps 617 mmHg 36%
    01:00 +4°C° 0 mm 1 mps 617 mmHg 33%
    02:00 +4°C° 0 mm 1 mps 616 mmHg 31%
    03:00 +2°C° 0 mm 2 mps 616 mmHg 29%
    04:00 +2°C° 0 mm 2 mps 616 mmHg 31%
    05:00 +2°C° 0 mm 2 mps 616 mmHg 33%
    06:00 +2°C° 0 mm 2 mps 616 mmHg 35%
    07:00 +4°C° 0 mm 2 mps 617 mmHg 35%
    08:00 +6°C° 0 mm 2 mps 618 mmHg 36%
    09:00 +8°C° 0 mm 2 mps 619 mmHg 36%
    10:00 +9°C° 0 mm 2 mps 620 mmHg 34%
    11:00 +10°C° 0 mm 2 mps 621 mmHg 32%
    12:00 +13°C° 0 mm 2 mps 621 mmHg 29%
    13:00 +12°C° 0 mm 2 mps 621 mmHg 31%
    14:00 +12°C° 0 mm 2 mps 620 mmHg 33%
    15:00 +12°C° 0 mm 2 mps 620 mmHg 35%
    16:00 +8°C° 0 mm 2 mps 619 mmHg 45%
    17:00 +7°C° 0 mm 1 mps 618 mmHg 54%
    18:00 +4°C° 0 mm 1 mps 618 mmHg 64%
    19:00 +4°C° 0 mm 1 mps 618 mmHg 61%
    20:00 +4°C° 0 mm 1 mps 618 mmHg 59%
    21:00 +3°C° 0 mm 1 mps 618 mmHg 56%
    22:00 +3°C° 0 mm 1 mps 618 mmHg 52%
    23:00 +3°C° 0 mm 1 mps 618 mmHg 49%
    Show more